Regional Weather Roundup
Issued by NWS Cleveland, OH

Home | Current Version | Previous Version | Graphics & Text | Print | Product List | Glossary On
Versions: 1 2 3 4 5 6 7 8 9 10 11 12 13 14 15 16 17 18 19 20 21 22 23 24 25 26 27 28 29 30 31 32 33 34 35 36 37 38 39 40 41 42 43 44 45 46 47 48 49 50
000
ASUS41 KCLE 261000
RWRCLE
OHIO REGIONAL WEATHER ROUNDUP
NATIONAL WEATHER SERVICE WILMINGTON, OH
600 AM EDT TUE MAY 26 2015

NOTE: "FAIR" INDICATES FEW OR NO CLOUDS BELOW 12,000 FEET WITH NO
SIGNIFICANT WEATHER AND/OR OBSTRUCTIONS TO VISIBILITY.

OHZ001>008-015>018-024>027-034-035-043-044-261100-
   NORTHWEST OHIO

CITY           SKY/WX    TMP DP  RH WIND       PRES   REMARKS
DEFIANCE       CLEAR     63  61  93 S3        30.06R
FINDLAY        MOCLDY    68  63  84 S10       30.06S
TOLEDO EXPRESS CLEAR     63  62  97 SW5       30.06R
TOLEDO EXEC    MOCLDY    66  61  84 S6        30.07R
LIMA           MOCLDY    67  63  87 S7        30.08R
$$

OHZ009>014-019>023-028>033-038-089-261100-
   NORTHEAST OHIO

CITY           SKY/WX    TMP DP  RH WIND       PRES   REMARKS
CLE-HOPKINS    MOCLDY    67  60  78 S9        30.10S
CLE-LAKEFRONT  MOCLDY    70  60  70 SE8       30.07S
CUY CO. ARPT   NOT AVBL
LORAIN-ELYRIA  PTCLDY    65  61  87 S7        30.09R
ASHTABULA      MOCLDY    63  60  90 S5        30.12R
AKRON-CANTON   CLOUDY    67  61  81 S8        30.12S
WOOSTER        NOT AVBL
MANSFIELD      CLOUDY    67  62  84 S9        30.11S
YOUNGSTOWN     CLOUDY    68  62  81 SW5       30.13S
$$

OHZ042-051>053-060>062-070>072-077>081-261100-
  SOUTHWEST OHIO

CITY           SKY/WX    TMP DP  RH WIND       PRES   REMARKS
CINC-COVINGTON MOCLDY    66  63  90 S7        30.10S
CINC-LUNKEN    CLOUDY    64  64 100 CALM      30.10F
HAMILTON       PTCLDY    64  62  93 CALM      30.11R
DAYTON         NOT AVBL
WRIGHT-PAT AFB NOT AVBL
DAYTON GENERAL PTCLDY    65  63  93 S7        30.10S
WILMINGTON     PTCLDY    64  62  93 S9        30.11S
$$

OHZ036-037-039>041-045>050-054>059-063>069-073>076-082>088-261100-
  CENTRAL AND SOUTHEAST OHIO

CITY           SKY/WX    TMP DP  RH WIND       PRES   REMARKS
COLUMBUS       PTCLDY    66  63  90 S5        30.12R
OSU AIRPORT    PTCLDY    66  62  87 S5        30.12R
BOLTON FIELD   NOT AVBL
RICKENBACK AFB NOT AVBL
NEWARK         FOG       63  62  97 CALM      30.12S VSB 1
MARION         CLOUDY    68  62  81 S9        30.11R
LANCASTER      MOCLDY    65  63  93 CALM      30.13R
ZANESVILLE     CLEAR     65  62  90 S5        30.13R
NEW PHILLY     PTCLDY    66  63  90 SE6       30.14R
$$


USA.gov is the U.S. government's official web portal to all federal, state and local government web resources and services.